Bellingham, WA
on Sunday, February 24, 2013

Sunday
Previous Day Next Day
Daily Summary
 ActualAverageRecord
Temperature
Mean Temperature °F 41°F  
Max Temperature 51°F 49°F 61°F (1986)
Min Temperature 44°F 34°F 20°F (2011)
Degree Days
Heating Degree Days 18 24  
Month to date heating degree days 587  
Cooling Degree Days 0 0  
Month to date cooling degree days 0  
Year to date cooling degree days 0  
Moisture
Dew Point 36°F   
Average Humidity 65    
Maximum Humidity 76    
Minimum Humidity 52    
Precipitation
Precipitation 0.00 in 0.10 in 1.03 in (1986)
Month to date precipitation 2.61  
Year to date precipitation 7.28  
Wind
Wind Speed 12 mph   
Max Wind Speed 32 mph   
Max Gust Speed 43 mph   
Visibility 10 miles   
Events     

Key: T is trace of precipitation, MM is missing value
Source: NWS Daily Summary
Time(PST)TemperatureDew PointHumidity Pressure Visibility Wind DirectionWind SpeedGust SpeedPrecipitationEvents Conditions
12:53 AM 46.0°F 37.0°F 71% 30.35 in 10.0 miles SSE 6.9 mph - N/A   Overcast
1:53 AM 46.9°F 34.0°F 61% 30.36 in 10.0 miles South 6.9 mph - N/A   Overcast
2:53 AM 45.0°F 37.9°F 76% 30.37 in 9.0 miles South 9.2 mph - 0.00 in   Overcast
3:53 AM 44.6°F 37.4°F 76% 30.34 in 10.0 miles SSE 8.1 mph - N/A   Overcast
4:42 AM 44.6°F 37.4°F 76% 30.33 in 10.0 miles SSE 9.2 mph - N/A   Overcast
4:53 AM 45.0°F 36.0°F 71% 30.35 in 10.0 miles SE 6.9 mph - N/A   Overcast
5:00 AM 44.6°F 37.4°F 76% 30.32 in 10.0 miles SE 6.9 mph - N/A   Overcast
5:14 AM 44.6°F 37.4°F 76% 30.32 in 10.0 miles SE 6.9 mph - N/A   Overcast
5:23 AM 44.6°F 37.4°F 76% 30.32 in 10.0 miles SE 6.9 mph - N/A   Overcast
5:53 AM 44.1°F 37.0°F 76% 30.35 in 10.0 miles SE 10.4 mph - N/A   Overcast
6:18 AM 44.6°F 37.4°F 76% 30.31 in 10.0 miles SE 12.7 mph - N/A   Overcast
6:53 AM 45.0°F 37.0°F 74% 30.33 in 10.0 miles SE 12.7 mph - N/A   Overcast
7:26 AM 44.6°F 35.6°F 71% 30.29 in 10.0 miles SE 13.8 mph - N/A   Overcast
7:53 AM 45.0°F 36.0°F 71% 30.32 in 10.0 miles SE 12.7 mph - N/A   Overcast
8:53 AM 46.9°F 36.0°F 66% 30.31 in 10.0 miles SE 15.0 mph 20.7 mph N/A   Overcast
9:53 AM 48.0°F 36.0°F 63% 30.30 in 10.0 miles SE 12.7 mph - N/A   Overcast
10:53 AM 48.9°F 36.0°F 61% 30.28 in 10.0 miles SSE 13.8 mph 19.6 mph N/A   Overcast
11:53 AM 50.0°F 36.0°F 59% 30.25 in 10.0 miles SE 17.3 mph 28.8 mph N/A   Overcast
12:53 PM 51.1°F 36.0°F 56% 30.23 in 10.0 miles SSE 17.3 mph 25.3 mph 0.00 in   Overcast
1:53 PM 51.1°F 35.1°F 54% 30.20 in 10.0 miles SSE 20.7 mph 28.8 mph N/A   Overcast
2:53 PM 51.1°F 36.0°F 56% 30.17 in 10.0 miles SSE 16.1 mph 25.3 mph N/A   Overcast
3:53 PM 51.1°F 35.1°F 54% 30.14 in 10.0 miles SSE 17.3 mph 26.5 mph N/A   Overcast
4:53 PM 51.1°F 35.1°F 54% 30.11 in 10.0 miles SSE 18.4 mph 26.5 mph N/A   Overcast
5:53 PM 50.0°F 35.1°F 57% 30.07 in 10.0 miles SSE 19.6 mph 25.3 mph N/A   Overcast
6:53 PM 50.0°F 36.0°F 59% 30.04 in 10.0 miles SE 21.9 mph 33.4 mph 0.00 in   Overcast
7:53 PM 50.0°F 36.0°F 59% 30.01 in 10.0 miles SE 21.9 mph 31.1 mph N/A   Overcast
8:53 PM 51.1°F 35.1°F 54% 29.96 in 10.0 miles SSE 23.0 mph 35.7 mph N/A   Overcast
9:53 PM 50.0°F 35.1°F 57% 29.92 in 10.0 miles SSE 17.3 mph 31.1 mph N/A   Overcast
10:53 PM 51.1°F 34.0°F 52% 29.89 in 10.0 miles SSE 25.3 mph 42.6 mph N/A   Overcast
11:53 PM 48.9°F 37.0°F 64% 29.86 in 10.0 miles SE 32.2 mph 42.6 mph 0.00 in   Overcast
Moon Phase
Feb. 24 Feb. 25 Mar. 04 Mar. 11 Mar. 19
Sunrise:07:00 AM (PST) Moon Rise:05:03 PM (PST)2/24
Sunset:05:46 PM (PST) Moon Set:06:02 AM (PST)2/24

Copyright © 2014 The Weather Underground, Inc.